DIRECTV 8

Last updated on Mon Oct 14 2024 00:02:37 GMT+0000 (Coordinated Universal Time)

1 28659U 05019A 24287.21284677 .00000000 00000+0 00000+0 0 9993 2 28659 0.0014 163.6292 0002995 48.4488 127.7938 1.00271040 70938
UTC large
Height (km)
Speed (km/s)
/
Latitude / Longitude
Inclination (degrees)
Orbital Period (minutes)
Azimuth
Elevation
Range (km)
Doppler Factor

Next 0 passes for location: London (51.5072 / 0.1276)

Sorry there are no passes over London.